"Pseudo-MPEC" for P12fYTh

Created 2025 Oct 5 21:35:12 UT using Find_Orb

Click here for an explanation of pseudo-MPECs

 
 Astrometry: 
     P12fYTh* C2025 09 30.42004101 05 17.213-11 49 27.36   ~9ULK 21.34wXNEOCPF51
     P12fYTh  C2025 09 30.43189701 05 20.481-11 49 15.83   ~9ULK 22.00wXNEOCPF51
     P12fYTh  C2025 09 30.44373101 05 23.725-11 49 04.25   ~9ULK 21.78wXNEOCPF51
     P12fYTh  C2025 09 30.45558401 05 26.975-11 48 51.62   ~9ULK 21.71wXNEOCPF51

Station data:
(F51) Pan-STARRS 1, Haleakala  (N20.707234 W156.255910)  US/Hawaii.
   Observers J. Herman, T. Lowe, P. Minguez, A. Schultz, I. Smith. Measurers
   K. Chambers, T. de Boer, J. Fairlamb, H. Gao, M. Huber, C.-C. Lin, E.
   Magnier, Y. Ramanjooloo, R. Wainscoat, R. Weryk. 1.8-m Ritchey-Chrétien +
   CCD.

Orbital elements:  P12fYTh
   Perihelion 2025 Nov 12.121259 +/- 37 TT =  2:54:36.7 (JD 2460991.621259)
Epoch 2025 Sep 30.0 TT = JDT 2460948.5   Earth MOID: 0.0011   Ma: 0.0222
M 343.041186001 +/- 17              (J2000 ecliptic)             AutoNEOCP
n   0.393281976 +/- 0.267           Peri.   26.473255 +/- 90
a   1.845015502 +/- 0.835           Node    31.032963 +/- 60
e   0.48082000 +/- 0.233            Incl.    3.391771 +/- 2.9
P   2.506/915.356d         H 25.84  G  0.15   U 11.9  SR
q 0.957895145 +/- 0.15    Q 2.732135859 +/- 6.18
From 4 observations 2025 Sept. 30 (51.2 min); mean residual 0".17
Residuals in arcseconds: 
250930 F51  .08-  .16+    250930 F51  .03+  .35-    
250930 F51  .10+  .07-    250930 F51  .06-  .26+    

Ephemerides (geocentric):
Date (UTC) HH   RA             Dec           delta  r     elong  mag " sig PA
---- --------  ------------   ------------  ------ ------ -----  --- --------
2025 10 05 22  01 46 13.133   -09 10 13.39  .06008 1.0563 159.4 20.8  49d  99
2025 10 05 23  01 46 39.385   -09 08 18.80  .05990 1.0561 159.4 20.8  49d  99
2025 10 06 00  01 47 05.793   -09 06 23.30  .05971 1.0559 159.3 20.8  49d  99
2025 10 06 01  01 47 32.357   -09 04 26.90  .05952 1.0557 159.3 20.8  49d  99
2025 10 06 02  01 47 59.079   -09 02 29.59  .05934 1.0555 159.3 20.8  49d  99
2025 10 06 03  01 48 25.959   -09 00 31.35  .05915 1.0553 159.2 20.8  49d  99
2025 10 06 04  01 48 53.000   -08 58 32.18  .05896 1.0551 159.2 20.8  50d  99
2025 10 06 05  01 49 20.202   -08 56 32.07  .05878 1.0549 159.1 20.8  50d  99
2025 10 06 06  01 49 47.567   -08 54 31.02  .05859 1.0547 159.1 20.8  50d  99
2025 10 06 07  01 50 15.095   -08 52 29.01  .05841 1.0545 159.0 20.8  50d  99
2025 10 06 08  01 50 42.789   -08 50 26.04  .05822 1.0543 159.0 20.8  50d  99
2025 10 06 09  01 51 10.648   -08 48 22.10  .05804 1.0541 158.9 20.8  50d  99
2025 10 06 10  01 51 38.676   -08 46 17.17  .05786 1.0539 158.9 20.8  50d  99
2025 10 06 11  01 52 06.871   -08 44 11.26  .05767 1.0537 158.9 20.8  51d  99
2025 10 06 12  01 52 35.237   -08 42 04.35  .05749 1.0535 158.8 20.8  51d  99
2025 10 06 13  01 53 03.775   -08 39 56.44  .05731 1.0533 158.8 20.7  51d  99
2025 10 06 14  01 53 32.485   -08 37 47.52  .05712 1.0531 158.7 20.7  51d  99
2025 10 06 15  01 54 01.369   -08 35 37.57  .05694 1.0529 158.7 20.7  51d  99
2025 10 06 16  01 54 30.428   -08 33 26.59  .05676 1.0527 158.6 20.7  51d  99
2025 10 06 17  01 54 59.663   -08 31 14.57  .05658 1.0525 158.6 20.7  51d  99
2025 10 06 18  01 55 29.077   -08 29 01.51  .05639 1.0523 158.5 20.7  52d  99
2025 10 06 19  01 55 58.670   -08 26 47.38  .05621 1.0521 158.5 20.7  52d  99
2025 10 06 20  01 56 28.443   -08 24 32.19  .05603 1.0519 158.4 20.7  52d  99
2025 10 06 21  01 56 58.399   -08 22 15.93  .05585 1.0517 158.3 20.7  52d  99
2025 10 06 22  01 57 28.537   -08 19 58.58  .05567 1.0515 158.3 20.7  52d  99
2025 10 06 23  01 57 58.861   -08 17 40.13  .05549 1.0513 158.2 20.7  52d  99
2025 10 07 00  01 58 29.370   -08 15 20.58  .05531 1.0511 158.2 20.7  52d  99
2025 10 07 01  01 59 00.067   -08 12 59.92  .05513 1.0509 158.1 20.7  53d  99
2025 10 07 02  01 59 30.953   -08 10 38.14  .05495 1.0507 158.1 20.7  53d  99
2025 10 07 03  02 00 02.029   -08 08 15.22  .05478 1.0505 158.0 20.7  53d  99
2025 10 07 04  02 00 33.297   -08 05 51.17  .05460 1.0503 158.0 20.7  53d  99
2025 10 07 05  02 01 04.758   -08 03 25.96  .05442 1.0501 157.9 20.7  53d  99
2025 10 07 06  02 01 36.414   -08 00 59.59  .05424 1.0499 157.8 20.7  53d  99
2025 10 07 07  02 02 08.266   -07 58 32.05  .05406 1.0497 157.8 20.6  54d  99
2025 10 07 08  02 02 40.315   -07 56 03.33  .05389 1.0495 157.7 20.6  54d  99
2025 10 07 09  02 03 12.564   -07 53 33.43  .05371 1.0493 157.7 20.6  54d  99
2025 10 07 10  02 03 45.013   -07 51 02.32  .05353 1.0491 157.6 20.6  54d  99
2025 10 07 11  02 04 17.664   -07 48 30.00  .05336 1.0489 157.5 20.6  54d  99
2025 10 07 12  02 04 50.518   -07 45 56.46  .05318 1.0487 157.5 20.6  54d  99
2025 10 07 13  02 05 23.578   -07 43 21.69  .05301 1.0485 157.4 20.6  54d  99
2025 10 07 14  02 05 56.844   -07 40 45.68  .05283 1.0483 157.3 20.6  55d  99
2025 10 07 15  02 06 30.319   -07 38 08.41  .05266 1.0481 157.3 20.6  55d  99
2025 10 07 16  02 07 04.003   -07 35 29.89  .05249 1.0479 157.2 20.6  55d  99
2025 10 07 17  02 07 37.898   -07 32 50.09  .05231 1.0477 157.1 20.6  55d  99
2025 10 07 18  02 08 12.006   -07 30 09.01  .05214 1.0475 157.1 20.6  55d  99
2025 10 07 19  02 08 46.328   -07 27 26.64  .05197 1.0473 157.0 20.6  55d  99
2025 10 07 20  02 09 20.866   -07 24 42.96  .05179 1.0471 156.9 20.6  55d  99
2025 10 07 21  02 09 55.622   -07 21 57.97  .05162 1.0469 156.9 20.6  56d  99